Location: Claremont
(33.9858°S, 18.4575°E)
Time: 11:23:40
(UTC+00:00)

CZ-2C R/B - Pass Details

Date: 03 March 2021
Orbit: 389 x 583 km, 35.0° (Epoch: 19 April)

Event Time Altitude Azimuth Distance (km) Brightness Sun altitude
Rises 18:17:25 0° 328° (NNW) 2,268 4.7 -12.5°
Reaches altitude 10° 18:20:06 10° 353° (N) 1,430 3.3 -13.0°
Enters shadow 18:21:46 15° 24° (NNE) 1,190 2.7 -13.4°
